[[{"header":{"parameterUnit":"m.s-1","parameterCategory":2,"la1":30.2991,"la2":30.254,"lo1":-89.0895,"lo2":-89.0444,"dy":0.0017,"dx":0.0017,"nx":28,"ny":28,"refTime":"2023-06-28T21:00:00:Z","depth":"0","parameterNumber":2,"parameterNumberName":"U-component_of_CURRENTS"},"data":[0,0,0,0,0,0,0,0,0,0,0,0,0,0,0,0,0,0,0,0,0,0,0,0,0,0,0,0,0,0,0,0,0,0,0,0,0,0,0,0,0,0,0,0,0,0,0,0,0,0,0,0,0,0,0,0,0,0,-0.1222,-0.1223,0,-0.1299,-0.13,-0.13,-0.136,-0.1361,-0.1361,-0.1362,-0.1333,-0.1331,-0.133,0,0,0,0,0,0,0,0,0,0,0,0,0,-0.118,-0.118,-0.1221,-0.1223,-0.1224,-0.1299,-0.13,-0.13,-0.136,-0.1361,-0.1362,-0.1363,-0.1333,-0.1331,-0.133,0,0,0,0,0,0,0,0,0,0,0,0,0,-0.1219,-0.118,-0.1221,-0.1264,-0.1269,-0.1299,-0.13,-0.1301,-0.136,-0.1361,-0.1362,-0.1363,-0.1334,-0.1332,-0.1329,-0.1291,0,0,-0.1322,-0.1321,0,0,0,0,0,0,0,0,-0.1217,-0.122,-0.1257,-0.1261,-0.1267,-0.1323,-0.1275,-0.1293,-0.1359,-0.1323,-0.1362,-0.1364,-0.132,-0.1319,-0.1329,-0.129,-0.1289,-0.1322,-0.1321,-0.132,-0.1319,0,0,0,0,0,0,0,-0.1214,-0.1218,-0.125,-0.1258,-0.1264,-0.1299,-0.1305,-0.1279,-0.131,-0.1326,-0.1331,-0.1343,-0.1322,-0.1331,-0.1329,-0.1288,-0.1322,-0.132,-0.1319,-0.1318,-0.1236,-0.1235,0,0,0,0,0,0,-0.1205,-0.1215,-0.1247,-0.1252,-0.1247,-0.1299,-0.1305,-0.1302,-0.1313,-0.1317,-0.1342,-0.1346,-0.1335,-0.1331,-0.1328,-0.1272,-0.132,-0.1318,-0.1316,-0.1237,-0.1236,-0.1235,0,0,0,0,0,0,-0.1204,-0.1207,-0.1244,-0.1238,-0.1246,-0.1298,-0.1294,-0.1303,-0.1316,-0.1327,-0.1329,-0.1346,-0.1335,-0.1331,-0.1302,-0.1271,-0.1317,-0.1315,-0.1238,-0.1236,-0.1235,-0.1167,0,0,0,0,0,0,-0.1202,-0.1205,-0.1186,-0.1237,-0.1246,-0.1248,-0.1293,-0.1304,-0.1322,-0.1328,-0.133,-0.1329,-0.1336,-0.1306,-0.13,-0.1269,-0.1313,-0.1239,-0.1237,-0.1236,-0.117,-0.1163,-0.1158,0,0,0,0,0,-0.12,-0.1163,-0.1184,-0.1188,-0.1222,-0.1247,-0.1254,-0.1295,-0.1321,-0.1313,-0.1322,-0.133,-0.1293,-0.1303,-0.1296,-0.1264,-0.1239,-0.1237,-0.1236,-0.1173,-0.1165,-0.1158,0,0,0,0,0,0,-0.1117,-0.1168,-0.1191,-0.1167,-0.1202,-0.1258,-0.1246,-0.1287,-0.1291,-0.1291,-0.131,-0.1308,-0.1277,-0.1279,-0.129,-0.124,-0.127,-0.1267,-0.1224,-0.1217,-0.1211,-0.122,-0.1311,0,0,0,0,0,-0.1094,-0.1085,-0.1145,-0.1119,-0.1134,-0.1191,-0.1204,-0.124,-0.126,-0.1265,-0.1269,-0.1269,-0.1263,-0.1248,-0.1241,-0.1198,-0.1216,-0.1178,-0.1172,-0.1166,-0.1171,-0.1166,-0.1159,-0.1229,-0.1229,-0.1229,0,0,-0.1052,-0.1078,-0.1071,-0.1102,-0.1128,-0.1144,-0.12,-0.1212,-0.1224,-0.1255,-0.1238,-0.1243,-0.125,-0.1216,-0.1201,-0.1211,-0.1156,-0.1164,-0.1159,-0.1167,-0.1163,-0.1157,-0.1151,-0.1227,-0.1228,-0.1228,0,0,-0.0986,-0.0989,-0.0979,-0.1005,-0.105,-0.1088,-0.1093,-0.1144,-0.1161,-0.1157,-0.1185,-0.1173,-0.1157,-0.1157,-0.1157,-0.1109,-0.1129,-0.1104,-0.1066,-0.106,-0.1054,-0.1049,-0.1063,-0.1059,-0.1093,-0.1092,-0.1092,0,-0.0939,-0.094,-0.0975,-0.0981,-0.0996,-0.1062,-0.1066,-0.1087,-0.1122,-0.113,-0.1141,-0.1139,-0.1134,-0.1112,-0.1098,-0.1093,-0.1103,-0.109,-0.1051,-0.1047,-0.1043,-0.1058,-0.1055,-0.1089,-0.1089,-0.109,-0.109,0,-0.0894,-0.089,-0.0878,-0.0914,-0.0925,-0.0932,-0.0983,-0.099,-0.1021,-0.1058,-0.1049,-0.1048,-0.1056,-0.1042,-0.1052,-0.1019,-0.104,-0.1049,-0.1068,-0.1032,-0.105,-0.1049,-0.1084,-0.1085,-0.1086,-0.1087,0,0,-0.0819,-0.0847,-0.0847,-0.0858,-0.0897,-0.0909,-0.0908,-0.0946,-0.0958,-0.0974,-0.0981,-0.0965,-0.0986,-0.0988,-0.0992,-0.0976,-0.0949,-0.0993,-0.0994,-0.1003,-0.0948,-0.0925,-0.0922,-0.0946,-0.0945,-0.0945,-0.0971,0,-0.0787,-0.079,-0.0808,-0.0801,-0.0812,-0.0851,-0.0848,-0.088,-0.0909,-0.0923,-0.0941,-0.0942,-0.096,-0.0952,-0.0942,-0.0948,-0.0943,-0.0943,-0.0985,-0.0987,-0.0968,-0.0918,-0.0867,-0.0882,-0.097,-0.0969,-0.0969,0,-0.0762,-0.077,-0.0766,-0.0774,-0.0779,-0.0778,-0.08,-0.0805,-0.0841,-0.0858,-0.0874,-0.0902,-0.0889,-0.0907,-0.0909,-0.0907,-0.0926,-0.0933,-0.0934,-0.0938,-0.0961,-0.0934,-0.0877,-0.0829,-0.0968,-0.0968,-0.0968,0,-0.0739,-0.0741,-0.074,-0.0744,-0.0762,-0.0756,-0.0763,-0.0791,-0.0791,-0.0819,-0.082,-0.0841,-0.0836,-0.0858,-0.0885,-0.0892,-0.0893,-0.0909,-0.0915,-0.0915,-0.0894,-0.0893,-0.0794,-0.0917,-0.0917,-0.0917,-0.0917,0,-0.0719,-0.0713,-0.0731,-0.0733,-0.0724,-0.0732,-0.0722,-0.0739,-0.0743,-0.0738,-0.0783,-0.0777,-0.0819,-0.0836,-0.0871,-0.0883,-0.0887,-0.0903,-0.091,-0.0869,-0.0865,-0.0842,-0.0738,-0.0918,-0.0918,-0.0918,-0.0918,0,-0.0699,-0.0713,-0.0712,-0.072,-0.0719,-0.0714,-0.0696,-0.0687,-0.0693,-0.0682,-0.0682,-0.0718,-0.0736,-0.0788,-0.082,-0.0851,-0.0834,-0.0885,-0.0843,-0.0844,-0.0795,-0.0687,-0.0642,-0.0676,-0.089,-0.0889,-0.0889,0,-0.0688,-0.069,-0.0705,-0.0702,-0.0705,-0.0692,-0.0678,-0.0672,-0.0654,-0.0645,-0.0632,-0.0652,-0.0674,-0.0722,-0.0771,-0.0827,-0.0805,-0.0812,-0.0811,-0.0768,-0.0655,-0.0682,-0.0719,-0.0765,-0.0764,-0.0763,-0.0762,0,-0.066,-0.0673,-0.0676,-0.0672,-0.066,-0.0649,-0.0623,-0.0602,-0.0584,-0.0568,-0.055,-0.0565,-0.0621,-0.0642,-0.0712,-0.0755,-0.0734,-0.0789,-0.0746,-0.0533,-0.0553,-0.0599,-0.0791,-0.0751,-0.0752,-0.0753,-0.0754,-0.0754,-0.063,-0.0626,-0.0624,-0.0608,-0.0616,-0.0591,-0.0551,-0.0532,-0.0492,-0.0449,-0.0483,-0.0458,-0.0485,-0.0574,-0.0643,-0.0657,-0.0668,-0.063,-0.0504,-0.0546,-0.0552,-0.0724,-0.0688,-0.0688,-0.0689,-0.0689,-0.069,0,-0.0567,-0.0552,-0.0546,-0.0527,-0.052,-0.0538,-0.0495,-0.0441,-0.0387,-0.0373,-0.0361,-0.0306,-0.0335,-0.0395,-0.0425,-0.0385,-0.0488,-0.0329,-0.0337,-0.0396,-0.0546,-0.0514,-0.0435,-0.0435,-0.0435,-0.0435,-0.0436,-0.0436,-0.0527,-0.0482,-0.0467,-0.0417,-0.0425,-0.037,-0.0342,-0.0296,-0.0255,-0.0182,-0.0135,-0.0142,-0.0074,0.0001,-0.0021,-0.0065,-0.0109,-0.0027,-0.0092,-0.0125,-0.0145,-0.0165,-0.0119,0.0042,0.0043,-0.0077,-0.0075,-0.0074]},{"header":{"parameterUnit":"m.s-1","parameterCategory":2,"la1":30.2991,"la2":30.254,"lo1":-89.0895,"lo2":-89.0444,"dy":0.0017,"dx":0.0017,"nx":28,"ny":28,"refTime":"2023-06-28T21:00:00:Z","depth":"0","parameterNumber":3,"parameterNumberName":"V-component_of_CURRENTS"},"data":[0,0,0,0,0,0,0,0,0,0,0,0,0,0,0,0,0,0,0,0,0,0,0,0,0,0,0,0,0,0,0,0,0,0,0,0,0,0,0,0,0,0,0,0,0,0,0,0,0,0,0,0,0,0,0,0,0,0,-0.1028,-0.1027,0,-0.0951,-0.095,-0.0949,-0.0936,-0.0936,-0.0936,-0.0937,-0.0811,-0.0808,-0.0804,0,0,0,0,0,0,0,0,0,0,0,0,0,-0.1077,-0.1077,-0.1028,-0.1027,-0.1026,-0.0951,-0.095,-0.0949,-0.0936,-0.0936,-0.0936,-0.0937,-0.0813,-0.0808,-0.0804,0,0,0,0,0,0,0,0,0,0,0,0,0,-0.1037,-0.1077,-0.1029,-0.1007,-0.1004,-0.0951,-0.095,-0.0949,-0.0936,-0.0936,-0.0936,-0.0937,-0.0814,-0.0809,-0.0803,-0.076,0,0,-0.0787,-0.0784,0,0,0,0,0,0,0,0,-0.1039,-0.1036,-0.1012,-0.1009,-0.1005,-0.095,-0.0921,-0.0882,-0.0935,-0.0965,-0.0937,-0.0937,-0.0851,-0.0842,-0.0832,-0.0754,-0.0749,-0.0786,-0.0783,-0.0781,-0.0779,0,0,0,0,0,0,0,-0.1042,-0.1038,-0.1001,-0.101,-0.1006,-0.0971,-0.0967,-0.0914,-0.0908,-0.0963,-0.0961,-0.0946,-0.0849,-0.0838,-0.0829,-0.0747,-0.0786,-0.0782,-0.0778,-0.0776,-0.0673,-0.0674,0,0,0,0,0,0,-0.1049,-0.1042,-0.1004,-0.0998,-0.102,-0.097,-0.0966,-0.097,-0.091,-0.09,-0.0946,-0.0946,-0.0847,-0.0835,-0.0824,-0.0795,-0.0781,-0.0775,-0.0772,-0.0673,-0.0673,-0.0674,0,0,0,0,0,0,-0.1051,-0.1047,-0.1007,-0.1014,-0.1006,-0.0969,-0.0974,-0.0968,-0.0955,-0.0897,-0.0887,-0.0938,-0.0847,-0.0832,-0.0785,-0.0789,-0.0773,-0.0768,-0.0672,-0.0673,-0.0673,-0.0719,0,0,0,0,0,0,-0.1053,-0.1049,-0.1049,-0.1015,-0.1006,-0.0973,-0.0973,-0.0966,-0.0944,-0.0943,-0.0886,-0.0876,-0.0846,-0.0793,-0.0779,-0.0781,-0.0764,-0.0671,-0.0672,-0.0673,-0.0717,-0.0721,-0.0725,0,0,0,0,0,-0.1055,-0.1061,-0.105,-0.1045,-0.1011,-0.0972,-0.0965,-0.0941,-0.0943,-0.0933,-0.0905,-0.0878,-0.0791,-0.0788,-0.0772,-0.0773,-0.0671,-0.0672,-0.0673,-0.0715,-0.072,-0.0725,0,0,0,0,0,0,-0.1078,-0.1058,-0.1047,-0.1045,-0.1007,-0.0969,-0.0957,-0.094,-0.091,-0.0911,-0.0868,-0.0855,-0.0821,-0.0788,-0.0787,-0.075,-0.0732,-0.073,-0.0769,-0.0774,-0.0778,-0.0793,-0.0759,0,0,0,0,0,-0.1083,-0.1085,-0.1048,-0.1042,-0.1029,-0.0992,-0.0973,-0.0955,-0.0923,-0.0911,-0.0871,-0.0839,-0.0813,-0.0787,-0.0753,-0.0715,-0.071,-0.0711,-0.0715,-0.0719,-0.0722,-0.0733,-0.0739,-0.0678,-0.0678,-0.0678,0,0,-0.1085,-0.1075,-0.1074,-0.1046,-0.1022,-0.0998,-0.0984,-0.0956,-0.0938,-0.0899,-0.0866,-0.0843,-0.0807,-0.078,-0.0762,-0.075,-0.0735,-0.0721,-0.0724,-0.0725,-0.0735,-0.0741,-0.0746,-0.0679,-0.0678,-0.0678,0,0,-0.1089,-0.1088,-0.1087,-0.1063,-0.1024,-0.1001,-0.0993,-0.0951,-0.0938,-0.0896,-0.0884,-0.0871,-0.08,-0.0796,-0.0782,-0.0785,-0.0759,-0.0769,-0.0792,-0.0803,-0.0808,-0.0813,-0.0819,-0.0823,-0.0768,-0.0768,-0.0768,0,-0.1085,-0.1085,-0.1074,-0.1062,-0.1041,-0.1005,-0.0986,-0.0965,-0.0911,-0.0902,-0.089,-0.0844,-0.0816,-0.0809,-0.0819,-0.0795,-0.079,-0.0775,-0.0809,-0.0813,-0.0817,-0.0822,-0.0827,-0.077,-0.077,-0.077,-0.077,0,-0.1085,-0.1078,-0.1075,-0.1054,-0.1032,-0.1008,-0.0977,-0.0958,-0.0937,-0.0913,-0.0895,-0.0871,-0.0849,-0.0845,-0.0828,-0.0844,-0.0829,-0.0817,-0.0798,-0.0826,-0.0829,-0.0834,-0.0774,-0.0773,-0.0772,-0.0772,0,0,-0.1072,-0.1075,-0.1068,-0.1057,-0.1026,-0.1003,-0.099,-0.0959,-0.0951,-0.0919,-0.0915,-0.0896,-0.0892,-0.0879,-0.0868,-0.0879,-0.091,-0.0858,-0.0858,-0.0868,-0.0927,-0.0983,-0.0992,-0.0899,-0.09,-0.09,-0.092,0,-0.106,-0.1052,-0.1054,-0.1025,-0.101,-0.0995,-0.0982,-0.0957,-0.0937,-0.0924,-0.0925,-0.091,-0.0901,-0.0898,-0.0912,-0.0909,-0.0921,-0.0906,-0.0895,-0.0895,-0.0944,-0.0999,-0.1051,-0.1079,-0.0923,-0.0924,-0.0924,0,-0.1035,-0.1038,-0.1024,-0.1012,-0.1006,-0.0989,-0.097,-0.0954,-0.0945,-0.0935,-0.0938,-0.0928,-0.0949,-0.0936,-0.0957,-0.0943,-0.094,-0.094,-0.094,-0.098,-0.0959,-0.1025,-0.1092,-0.1021,-0.093,-0.093,-0.0929,0,-0.1007,-0.1001,-0.0995,-0.0989,-0.098,-0.0976,-0.0966,-0.0954,-0.0945,-0.0948,-0.0948,-0.0959,-0.0967,-0.0975,-0.098,-0.0965,-0.1001,-0.098,-0.1027,-0.103,-0.1068,-0.1074,-0.1071,-0.0998,-0.0998,-0.0997,-0.0997,0,-0.0973,-0.0957,-0.0985,-0.0976,-0.0962,-0.0964,-0.0948,-0.0944,-0.0949,-0.0942,-0.0955,-0.0966,-0.0976,-0.0994,-0.0993,-0.1036,-0.1014,-0.105,-0.105,-0.1086,-0.1093,-0.1026,-0.0909,-0.0998,-0.0998,-0.0998,-0.0998,0,-0.0916,-0.0939,-0.0925,-0.094,-0.0944,-0.0929,-0.0931,-0.0922,-0.0938,-0.0939,-0.0944,-0.0973,-0.1013,-0.1026,-0.1045,-0.1063,-0.0992,-0.11,-0.1145,-0.1151,-0.1152,-0.1034,-0.0875,-0.0645,-0.1171,-0.1173,-0.1175,0,-0.0884,-0.0879,-0.0897,-0.0892,-0.0893,-0.0888,-0.0883,-0.0903,-0.0904,-0.0942,-0.0946,-0.0995,-0.102,-0.1093,-0.1173,-0.1219,-0.1013,-0.1256,-0.1253,-0.1181,-0.1048,-0.0867,-0.0665,-0.1312,-0.1314,-0.1316,-0.1318,0,-0.0822,-0.0834,-0.0831,-0.0832,-0.083,-0.0829,-0.0836,-0.0841,-0.0872,-0.0895,-0.094,-0.0971,-0.1098,-0.1194,-0.1276,-0.1309,-0.109,-0.13,-0.1212,-0.1157,-0.0968,-0.0738,-0.1252,-0.1335,-0.1334,-0.1332,-0.1331,-0.1331,-0.0772,-0.0758,-0.0768,-0.076,-0.0759,-0.0766,-0.0761,-0.0787,-0.0807,-0.0832,-0.09,-0.0939,-0.1105,-0.1272,-0.1335,-0.1429,-0.1198,-0.1393,-0.1256,-0.108,-0.0857,-0.1418,-0.151,-0.1509,-0.1509,-0.1508,-0.1508,0,-0.0717,-0.0712,-0.07,-0.0699,-0.0684,-0.0707,-0.0722,-0.0722,-0.0744,-0.0778,-0.0819,-0.0923,-0.1088,-0.1224,-0.1397,-0.1369,-0.1198,-0.1298,-0.1057,-0.0841,-0.1394,-0.1409,-0.15,-0.15,-0.15,-0.15,-0.15,-0.15,-0.0684,-0.0664,-0.0666,-0.0633,-0.0629,-0.0613,-0.0617,-0.063,-0.065,-0.0663,-0.0689,-0.0714,-0.073,-0.1011,-0.1143,-0.1186,-0.0792,-0.0896,-0.0568,-0.1048,-0.1046,-0.1044,-0.1038,-0.1049,-0.1048,-0.0003,0.0005,0.0011]}],[{"header":{"parameterUnit":"m.s-1","parameterCategory":2,"la1":30.2991,"la2":30.254,"lo1":-89.0895,"lo2":-89.0444,"dy":0.0017,"dx":0.0017,"nx":28,"ny":28,"refTime":"2023-06-28T21:00:00:Z","depth":"2","parameterNumber":2,"parameterNumberName":"U-component_of_CURRENTS"},"data":[0,0,0,0,0,0,0,0,0,0,0,0,0,0,0,0,0,0,0,0,0,0,0,0,0,0,0,0,0,0,0,0,0,0,0,0,0,0,0,0,0,0,0,0,0,0,0,0,0,0,0,0,0,0,0,0,0,0,-0.2735,-0.2734,0,-0.2593,-0.2591,-0.2589,-0.2593,-0.2595,-0.2598,-0.26,-0.2398,-0.2391,-0.2384,0,0,0,0,0,0,0,0,0,0,0,0,0,-0.2894,-0.2892,-0.2735,-0.2734,-0.2732,-0.2593,-0.2591,-0.2588,-0.2593,-0.2596,-0.2598,-0.2601,-0.2401,-0.2392,-0.2383,0,0,0,0,0,0,0,0,0,0,0,0,0,-0.2793,-0.2891,-0.2735,-0.272,-0.2717,-0.2593,-0.2591,-0.2588,-0.2592,-0.2596,-0.2599,-0.2602,-0.2404,-0.2393,-0.2382,-0.2246,0,0,-0.2348,-0.2343,0,0,0,0,0,0,0,0,-0.2799,-0.2787,-0.2724,-0.2721,-0.2717,-0.2617,-0.2573,-0.2472,-0.2591,-0.2637,-0.26,-0.2604,-0.2465,-0.2449,-0.2412,-0.2237,-0.2228,-0.2347,-0.234,-0.2335,-0.2332,0,0,0,0,0,0,0,-0.2806,-0.2793,-0.2676,-0.2722,-0.2718,-0.268,-0.267,-0.2553,-0.2531,-0.2633,-0.2634,-0.2621,-0.2463,-0.2423,-0.2407,-0.2225,-0.2347,-0.2337,-0.233,-0.2326,-0.1954,-0.1951,0,0,0,0,0,0,-0.2831,-0.2799,-0.268,-0.2672,-0.2771,-0.2675,-0.2664,-0.2643,-0.2533,-0.2521,-0.2618,-0.2622,-0.244,-0.242,-0.24,-0.2269,-0.2335,-0.2325,-0.2319,-0.1957,-0.1953,-0.1949,0,0,0,0,0,0,-0.2835,-0.2822,-0.2686,-0.2736,-0.2716,-0.267,-0.2646,-0.2639,-0.2615,-0.2523,-0.251,-0.2606,-0.2442,-0.2416,-0.2289,-0.2261,-0.232,-0.231,-0.1961,-0.1956,-0.1951,-0.1984,0,0,0,0,0,0,-0.284,-0.2823,-0.281,-0.2737,-0.2715,-0.262,-0.2643,-0.2634,-0.2603,-0.2606,-0.2506,-0.2491,-0.2442,-0.2306,-0.2278,-0.2247,-0.2301,-0.1965,-0.1958,-0.1953,-0.1987,-0.1981,-0.1976,0,0,0,0,0,-0.2846,-0.2822,-0.281,-0.2795,-0.27,-0.2619,-0.2603,-0.258,-0.26,-0.2574,-0.25,-0.2495,-0.2249,-0.2293,-0.2261,-0.2227,-0.1968,-0.196,-0.1953,-0.199,-0.1983,-0.1976,0,0,0,0,0,0,-0.2878,-0.2817,-0.2804,-0.2761,-0.2698,-0.2622,-0.2592,-0.2577,-0.2497,-0.2502,-0.2434,-0.2409,-0.2295,-0.2235,-0.2286,-0.2098,-0.2113,-0.2099,-0.2152,-0.2144,-0.2139,-0.2141,-0.2292,0,0,0,0,0,-0.2877,-0.2846,-0.2777,-0.2738,-0.2711,-0.265,-0.2615,-0.2594,-0.252,-0.2492,-0.2423,-0.2333,-0.2229,-0.2174,-0.2076,-0.1952,-0.191,-0.1911,-0.1906,-0.1902,-0.1878,-0.1793,-0.178,-0.1926,-0.1926,-0.1926,0,0,-0.2873,-0.2838,-0.2818,-0.2742,-0.2693,-0.2622,-0.2637,-0.258,-0.2518,-0.2473,-0.2368,-0.2305,-0.219,-0.207,-0.2014,-0.2024,-0.1838,-0.1893,-0.1891,-0.1868,-0.1784,-0.1771,-0.1759,-0.1921,-0.1922,-0.1923,0,0,-0.2844,-0.2822,-0.2781,-0.2727,-0.2658,-0.261,-0.2599,-0.2519,-0.2488,-0.237,-0.233,-0.224,-0.2086,-0.2002,-0.1937,-0.1824,-0.1814,-0.1813,-0.1781,-0.1701,-0.1689,-0.1678,-0.1627,-0.1611,-0.181,-0.181,-0.181,0,-0.2843,-0.2776,-0.2753,-0.2692,-0.2641,-0.2606,-0.2534,-0.2475,-0.2366,-0.2318,-0.2343,-0.212,-0.2043,-0.1882,-0.1859,-0.1813,-0.1785,-0.183,-0.1699,-0.1687,-0.1675,-0.1625,-0.1607,-0.1811,-0.181,-0.181,-0.181,0,-0.2766,-0.2714,-0.2684,-0.2595,-0.254,-0.2472,-0.2397,-0.234,-0.231,-0.2251,-0.212,-0.202,-0.1898,-0.1866,-0.1825,-0.1697,-0.1711,-0.1713,-0.1734,-0.1664,-0.1614,-0.1595,-0.1812,-0.1811,-0.1811,-0.1811,0,0,-0.2741,-0.265,-0.2636,-0.2581,-0.2484,-0.2424,-0.2328,-0.2215,-0.2154,-0.2075,-0.1984,-0.1829,-0.1824,-0.1747,-0.1702,-0.1632,-0.1541,-0.1648,-0.1643,-0.1628,-0.1392,-0.1345,-0.132,-0.1544,-0.154,-0.1537,-0.1399,0,-0.2675,-0.2571,-0.2534,-0.241,-0.2339,-0.2287,-0.2198,-0.2105,-0.2042,-0.1951,-0.1868,-0.1764,-0.1764,-0.1726,-0.1653,-0.1567,-0.1489,-0.1579,-0.1432,-0.1427,-0.1419,-0.1294,-0.1277,-0.1147,-0.1381,-0.1378,-0.1375,0,-0.2586,-0.2532,-0.2419,-0.2315,-0.2281,-0.221,-0.2082,-0.2,-0.1882,-0.1843,-0.1755,-0.1709,-0.158,-0.1613,-0.1431,-0.1502,-0.1436,-0.1382,-0.1376,-0.13,-0.1342,-0.1244,-0.1104,-0.1344,-0.1346,-0.1348,-0.1351,0,-0.2549,-0.2438,-0.2353,-0.231,-0.2193,-0.2139,-0.2079,-0.1965,-0.189,-0.1784,-0.1737,-0.1609,-0.1541,-0.1443,-0.1352,-0.1389,-0.1177,-0.121,-0.1094,-0.1093,-0.1023,-0.1021,-0.1055,-0.1055,-0.1056,-0.1056,-0.1056,0,-0.2467,-0.2392,-0.2337,-0.2279,-0.2174,-0.212,-0.2005,-0.1937,-0.1842,-0.1743,-0.1693,-0.1605,-0.1498,-0.1383,-0.1315,-0.1142,-0.114,-0.1042,-0.1026,-0.1034,-0.1034,-0.1163,-0.1177,-0.1051,-0.1052,-0.1053,-0.1054,0,-0.2398,-0.237,-0.226,-0.2171,-0.2143,-0.2068,-0.1966,-0.1887,-0.1827,-0.1704,-0.1674,-0.1567,-0.1424,-0.1314,-0.1142,-0.1071,-0.0931,-0.0872,-0.0904,-0.0891,-0.0915,-0.0932,-0.0705,-0.0701,-0.0698,-0.0696,-0.0694,0,-0.2333,-0.2275,-0.2187,-0.2138,-0.2092,-0.2002,-0.1933,-0.1868,-0.1796,-0.1675,-0.161,-0.1468,-0.135,-0.1099,-0.0941,-0.0768,-0.0828,-0.0655,-0.0686,-0.0857,-0.0865,-0.0887,-0.0908,-0.0623,-0.0621,-0.0619,-0.0617,0,-0.2188,-0.2178,-0.2107,-0.2028,-0.1958,-0.1883,-0.1803,-0.1762,-0.1684,-0.1616,-0.151,-0.1423,-0.1171,-0.0981,-0.0759,-0.0656,-0.0686,-0.0606,-0.0727,-0.0721,-0.0769,-0.0782,-0.0807,-0.0599,-0.0601,-0.0602,-0.0603,-0.0604,-0.2066,-0.2012,-0.1945,-0.1859,-0.1803,-0.1755,-0.1685,-0.165,-0.157,-0.1442,-0.1419,-0.1262,-0.111,-0.0759,-0.0621,-0.0474,-0.0497,-0.0474,-0.0484,-0.0496,-0.0517,-0.0557,-0.0353,-0.0354,-0.0354,-0.0354,-0.0355,0,-0.1869,-0.1839,-0.1773,-0.1679,-0.1609,-0.1619,-0.1562,-0.1521,-0.1446,-0.1324,-0.1224,-0.1004,-0.0862,-0.071,-0.046,-0.0333,-0.0353,-0.0312,-0.0396,-0.0412,-0.0427,-0.045,-0.0266,-0.0265,-0.0265,-0.0265,0,0,-0.1752,-0.1647,-0.164,-0.1486,-0.1444,-0.1336,-0.1307,-0.1315,-0.1241,-0.1054,-0.0927,-0.0904,-0.0783,-0.0611,-0.0471,-0.0356,-0.039,-0.0314,-0.0388,-0.0511,-0.0527,-0.0515,-0.0566,0,0,0,0,0]},{"header":{"parameterUnit":"m.s-1","parameterCategory":2,"la1":30.2991,"la2":30.254,"lo1":-89.0895,"lo2":-89.0444,"dy":0.0017,"dx":0.0017,"nx":28,"ny":28,"refTime":"2023-06-28T21:00:00:Z","depth":"2","parameterNumber":3,"parameterNumberName":"V-component_of_CURRENTS"},"data":[0,0,0,0,0,0,0,0,0,0,0,0,0,0,0,0,0,0,0,0,0,0,0,0,0,0,0,0,0,0,0,0,0,0,0,0,0,0,0,0,0,0,0,0,0,0,0,0,0,0,0,0,0,0,0,0,0,0,0.0309,0.031,0,0.0406,0.0408,0.0409,0.0453,0.0453,0.0453,0.0453,0.0576,0.058,0.0583,0,0,0,0,0,0,0,0,0,0,0,0,0,0.0197,0.0198,0.0309,0.031,0.0311,0.0406,0.0408,0.0409,0.0453,0.0453,0.0453,0.0453,0.0575,0.0579,0.0583,0,0,0,0,0,0,0,0,0,0,0,0,0,0.0265,0.0199,0.0308,0.0345,0.0349,0.0406,0.0408,0.0409,0.0453,0.0453,0.0453,0.0453,0.0574,0.0579,0.0584,0.0618,0,0,0.0599,0.0601,0,0,0,0,0,0,0,0,0.0261,0.0269,0.0338,0.0342,0.0347,0.0418,0.0414,0.048,0.0453,0.0413,0.0453,0.0453,0.0526,0.0535,0.0553,0.0623,0.0629,0.06,0.0603,0.0605,0.0606,0,0,0,0,0,0,0,0.0256,0.0265,0.0347,0.034,0.0345,0.0369,0.0378,0.0426,0.047,0.0417,0.042,0.0432,0.0529,0.0548,0.0556,0.063,0.06,0.0604,0.0607,0.0609,0.0748,0.0748,0,0,0,0,0,0,0.0243,0.0261,0.0344,0.035,0.0303,0.0371,0.0381,0.0395,0.0469,0.048,0.0432,0.0433,0.0539,0.055,0.0561,0.0594,0.0605,0.061,0.0613,0.0747,0.0748,0.0748,0,0,0,0,0,0,0.024,0.0249,0.034,0.0307,0.0321,0.0373,0.0388,0.0397,0.0411,0.048,0.0491,0.0436,0.054,0.0554,0.059,0.06,0.0612,0.0617,0.0746,0.0747,0.0748,0.0669,0,0,0,0,0,0,0.0237,0.0248,0.025,0.0307,0.0322,0.0357,0.0389,0.0399,0.0419,0.0422,0.0487,0.0499,0.0541,0.0582,0.0595,0.0607,0.062,0.0745,0.0747,0.0748,0.0671,0.0667,0.0664,0,0,0,0,0,0.0232,0.0234,0.0249,0.0259,0.0324,0.0357,0.0366,0.0403,0.0419,0.0417,0.0461,0.0497,0.06,0.0586,0.0602,0.0615,0.0745,0.0746,0.0748,0.0672,0.0668,0.0664,0,0,0,0,0,0,0.0186,0.0241,0.0258,0.0277,0.0306,0.0364,0.037,0.0397,0.0431,0.0434,0.0497,0.0511,0.0547,0.0594,0.0578,0.0661,0.0683,0.0687,0.062,0.0617,0.0613,0.06,0.0625,0,0,0,0,0,0.0177,0.0193,0.0243,0.0255,0.0267,0.0317,0.0334,0.0358,0.0399,0.0414,0.046,0.0517,0.0568,0.0599,0.0644,0.0688,0.0749,0.0712,0.0708,0.0705,0.0707,0.0831,0.0839,0.0753,0.0753,0.0753,0,0,0.0164,0.0195,0.0204,0.0246,0.0274,0.0291,0.0326,0.0345,0.0364,0.0424,0.0455,0.0498,0.0574,0.0616,0.0639,0.0656,0.0753,0.0707,0.0703,0.0707,0.0833,0.0842,0.0849,0.0754,0.0754,0.0754,0,0,0.0143,0.0169,0.0174,0.0195,0.0231,0.0263,0.0264,0.0312,0.0334,0.0366,0.0419,0.047,0.0536,0.0602,0.0644,0.0656,0.0722,0.0667,0.065,0.077,0.0778,0.0786,0.083,0.0843,0.0676,0.0676,0.0676,0,0.0122,0.0142,0.0177,0.0185,0.0204,0.0246,0.0254,0.0284,0.0337,0.0368,0.0362,0.0487,0.0539,0.0628,0.0619,0.065,0.0699,0.0652,0.0765,0.0774,0.0784,0.0829,0.0844,0.0672,0.0673,0.0673,0.0673,0,0.0107,0.0121,0.0123,0.0153,0.0173,0.0183,0.0229,0.0251,0.028,0.0323,0.039,0.0457,0.0538,0.0563,0.0587,0.0682,0.0684,0.0735,0.0769,0.0788,0.0833,0.085,0.0667,0.0668,0.0669,0.067,0,0,0.0064,0.0105,0.0104,0.0118,0.0157,0.0175,0.0204,0.0257,0.0296,0.0335,0.0398,0.0468,0.0501,0.0551,0.0603,0.0696,0.078,0.0726,0.0734,0.0758,0.099,0.0854,0.086,0.085,0.0854,0.0857,0.0977,0,0.004,0.0048,0.008,0.0093,0.0102,0.0154,0.0184,0.0237,0.0288,0.0354,0.0436,0.0498,0.0501,0.0533,0.0624,0.0745,0.0828,0.0739,0.098,0.0986,0.0855,0.0878,0.0888,0.0985,0.0994,0.0997,0.1,0,0.0008,0.0026,0.0025,0.008,0.0089,0.01,0.0171,0.0204,0.0307,0.0347,0.0422,0.0483,0.0587,0.0603,0.0807,0.0744,0.0851,0.0945,0.0954,0.0871,0.0884,0.0981,0.1017,0.1029,0.1027,0.1025,0.1023,0,-0.0046,-0.0011,-0.0011,0.0001,0.0061,0.0077,0.0111,0.0196,0.0241,0.0339,0.0387,0.0511,0.0576,0.0733,0.0847,0.0854,0.1071,0.1129,0.111,0.11,0.1178,0.1167,0.1307,0.1306,0.1306,0.1306,0.1305,0,-0.0088,-0.0083,-0.004,-0.0042,-0.0021,0.003,0.0068,0.0122,0.0214,0.0283,0.0367,0.045,0.0618,0.074,0.0865,0.0987,0.1088,0.1099,0.1134,0.114,0.1125,0.123,0.122,0.131,0.1309,0.1308,0.1308,0,-0.0152,-0.0129,-0.0118,-0.0068,-0.0054,-0.0045,0.0025,0.0067,0.0143,0.024,0.0266,0.0419,0.0543,0.0671,0.0918,0.099,0.1144,0.1173,0.11,0.1121,0.1094,0.1079,0.1199,0.1196,0.1193,0.119,0.1188,0,-0.0179,-0.0189,-0.0153,-0.0149,-0.0133,-0.0106,-0.0076,0.001,0.007,0.0232,0.0289,0.0406,0.0496,0.0714,0.0892,0.1049,0.1059,0.1104,0.1128,0.1067,0.1091,0.1079,0.1068,0.1207,0.1206,0.1204,0.1203,0,-0.0222,-0.0222,-0.0214,-0.0211,-0.0195,-0.0153,-0.0098,-0.0059,0.0066,0.0154,0.0294,0.0371,0.0563,0.0734,0.0857,0.0956,0.1064,0.1073,0.1121,0.1177,0.107,0.1093,0.1084,0.119,0.1191,0.1192,0.1193,0.1194,-0.0253,-0.0266,-0.0268,-0.0263,-0.0242,-0.0197,-0.0162,-0.0077,0.0014,0.0151,0.0254,0.0407,0.0528,0.0744,0.0835,0.0954,0.1011,0.1044,0.1054,0.1063,0.0988,0.0876,0.0943,0.0942,0.0942,0.0942,0.0942,0,-0.0282,-0.0299,-0.0308,-0.0299,-0.029,-0.0257,-0.0166,-0.0117,-0.0014,0.0118,0.0216,0.0355,0.0554,0.0687,0.0932,0.1,0.1049,0.092,0.1022,0.1035,0.1046,0.0973,0.0923,0.0923,0.0922,0.0922,0,0,-0.0298,-0.0331,-0.0341,-0.0345,-0.0335,-0.0291,-0.0239,-0.0157,-0.004,0.0034,0.0186,0.0337,0.0587,0.0686,0.077,0.0889,0.0912,0.0848,0.0867,0.0987,0.0996,0.113,0.103,0,0,0,0,0]}],[{"header":{"parameterUnit":"m.s-1","parameterCategory":2,"la1":30.2991,"la2":30.254,"lo1":-89.0895,"lo2":-89.0444,"dy":0.0017,"dx":0.0017,"nx":28,"ny":28,"refTime":"2023-06-28T21:00:00:Z","depth":"4","parameterNumber":2,"parameterNumberName":"U-component_of_CURRENTS"},"data":[0,0,0,0,0,0,0,0,0,0,0,0,0,0,0,0,0,0,0,0,0,0,0,0,0,0,0,0,0,0,0,0,0,0,0,0,0,0,0,0,0,0,0,0,0,0,0,0,0,0,0,0,0,0,0,0,0,0,-0.0787,-0.0788,0,-0.0842,-0.0842,-0.0842,-0.0863,-0.0863,-0.0864,-0.0864,-0.1006,-0.101,-0.1013,0,0,0,0,0,0,0,0,0,0,0,0,0,-0.0738,-0.0738,-0.0787,-0.0788,-0.0789,-0.0842,-0.0842,-0.0842,-0.0863,-0.0863,-0.0864,-0.0864,-0.1005,-0.1009,-0.1014,0,0,0,0,0,0,0,0,0,0,0,0,0,-0.0769,-0.0739,-0.0787,-0.0809,-0.0812,-0.0841,-0.0842,-0.0842,-0.0863,-0.0863,-0.0864,-0.0864,-0.1004,-0.1009,-0.1014,-0.1042,0,0,-0.1031,-0.1033,0,0,0,0,0,0,0,0,-0.0767,-0.077,-0.0805,-0.0807,-0.0811,-0.0849,-0.0877,-0.0915,-0.0863,-0.084,-0.0864,-0.0864,-0.0964,-0.0973,-0.0976,-0.1049,-0.1055,-0.1031,-0.1035,-0.1037,-0.1038,0,0,0,0,0,0,0,-0.0765,-0.0768,-0.0805,-0.0806,-0.0809,-0.0829,-0.0832,-0.0884,-0.0898,-0.0842,-0.0844,-0.0856,-0.0966,-0.097,-0.098,-0.1057,-0.1031,-0.1036,-0.1039,-0.1041,-0.1177,-0.1177,0,0,0,0,0,0,-0.0764,-0.0766,-0.0803,-0.0807,-0.0793,-0.0829,-0.0834,-0.0833,-0.0896,-0.0906,-0.0856,-0.0857,-0.0961,-0.0973,-0.0985,-0.1065,-0.1037,-0.1042,-0.1045,-0.1176,-0.1177,-0.1177,0,0,0,0,0,0,-0.0762,-0.0766,-0.0801,-0.0792,-0.0798,-0.083,-0.083,-0.0834,-0.0858,-0.0906,-0.0918,-0.0877,-0.0962,-0.0977,-0.1048,-0.1069,-0.1044,-0.1049,-0.1176,-0.1176,-0.1177,-0.1198,0,0,0,0,0,0,-0.076,-0.0765,-0.0761,-0.0791,-0.0799,-0.0824,-0.083,-0.0835,-0.0866,-0.0868,-0.0929,-0.094,-0.0963,-0.104,-0.1054,-0.1076,-0.1054,-0.1176,-0.1176,-0.1177,-0.1196,-0.1199,-0.1201,0,0,0,0,0,-0.0758,-0.0758,-0.076,-0.0765,-0.0793,-0.0825,-0.083,-0.0852,-0.0867,-0.0874,-0.0924,-0.094,-0.1052,-0.1046,-0.1061,-0.1086,-0.1175,-0.1176,-0.1177,-0.1196,-0.1198,-0.1201,0,0,0,0,0,0,-0.0742,-0.0762,-0.0764,-0.0771,-0.0797,-0.083,-0.0842,-0.0863,-0.0905,-0.0923,-0.0961,-0.0977,-0.1054,-0.1059,-0.105,-0.1121,-0.111,-0.1114,-0.1119,-0.1122,-0.1124,-0.1139,-0.1058,0,0,0,0,0,-0.0735,-0.0739,-0.0764,-0.0774,-0.0784,-0.0816,-0.0833,-0.0858,-0.0901,-0.0919,-0.0957,-0.1003,-0.1065,-0.1085,-0.1139,-0.1178,-0.1186,-0.1196,-0.1198,-0.12,-0.122,-0.1283,-0.1294,-0.118,-0.118,-0.118,0,0,-0.0731,-0.0748,-0.0748,-0.0772,-0.0792,-0.0815,-0.0827,-0.0867,-0.0894,-0.0933,-0.0979,-0.1034,-0.1084,-0.1138,-0.1167,-0.1144,-0.1219,-0.1201,-0.1202,-0.1223,-0.1285,-0.1297,-0.1307,-0.118,-0.118,-0.118,0,0,-0.0734,-0.0742,-0.0742,-0.0767,-0.0808,-0.0831,-0.0847,-0.0887,-0.0906,-0.0967,-0.1007,-0.1069,-0.1136,-0.1171,-0.1202,-0.1244,-0.1251,-0.1251,-0.1257,-0.1317,-0.1327,-0.1337,-0.129,-0.1296,-0.1225,-0.1226,-0.1226,0,-0.0728,-0.0733,-0.0751,-0.077,-0.0796,-0.084,-0.0862,-0.0891,-0.0951,-0.0967,-0.0986,-0.1105,-0.1155,-0.1223,-0.1245,-0.1254,-0.1258,-0.1246,-0.1322,-0.1332,-0.1342,-0.1292,-0.1298,-0.1227,-0.1226,-0.1226,-0.1226,0,-0.0729,-0.0742,-0.0754,-0.0784,-0.0816,-0.0849,-0.0894,-0.0925,-0.0966,-0.099,-0.1072,-0.1141,-0.1199,-0.1224,-0.1264,-0.1344,-0.131,-0.134,-0.132,-0.1355,-0.1298,-0.1304,-0.1228,-0.1228,-0.1227,-0.1227,0,0,-0.07,-0.0737,-0.0747,-0.0757,-0.083,-0.0854,-0.0908,-0.0949,-0.0976,-0.1037,-0.1072,-0.1191,-0.1218,-0.1256,-0.1297,-0.1357,-0.1418,-0.1383,-0.1385,-0.1341,-0.1484,-0.1289,-0.1276,-0.1478,-0.1481,-0.1483,-0.139,0,-0.0693,-0.0713,-0.0749,-0.0787,-0.08,-0.0863,-0.0904,-0.0958,-0.1007,-0.1044,-0.1115,-0.1183,-0.1226,-0.1272,-0.1339,-0.1434,-0.1448,-0.1436,-0.1453,-0.1451,-0.1282,-0.1283,-0.1492,-0.1394,-0.1396,-0.1397,-0.1398,0,-0.0685,-0.0699,-0.0722,-0.0773,-0.0785,-0.0824,-0.0896,-0.0945,-0.1013,-0.1055,-0.1122,-0.1168,-0.1265,-0.1307,-0.1431,-0.1427,-0.1457,-0.1506,-0.1503,-0.1332,-0.1271,-0.137,-0.1408,-0.1407,-0.1407,-0.1406,-0.1405,0,-0.0648,-0.0687,-0.0699,-0.072,-0.0782,-0.0812,-0.0865,-0.0944,-0.0981,-0.107,-0.1095,-0.1195,-0.127,-0.135,-0.1401,-0.1452,-0.1499,-0.1565,-0.1384,-0.1366,-0.1563,-0.1554,-0.1633,-0.1633,-0.1633,-0.1634,-0.1634,0,-0.0621,-0.0637,-0.0678,-0.0686,-0.0709,-0.0786,-0.083,-0.0895,-0.0982,-0.1003,-0.1097,-0.1094,-0.1311,-0.1327,-0.1377,-0.1347,-0.1454,-0.138,-0.1349,-0.1558,-0.1551,-0.1561,-0.1554,-0.163,-0.1631,-0.1632,-0.1632,0,-0.0576,-0.0602,-0.0623,-0.0678,-0.069,-0.0722,-0.0806,-0.0833,-0.0931,-0.0967,-0.0997,-0.1079,-0.1096,-0.1175,-0.1294,-0.1296,-0.1295,-0.1238,-0.135,-0.1329,-0.1129,-0.1124,-0.1083,-0.1076,-0.107,-0.1065,-0.106,0,-0.0549,-0.0552,-0.0604,-0.0612,-0.0635,-0.0681,-0.0703,-0.0807,-0.0824,-0.0891,-0.0873,-0.0919,-0.0944,-0.0904,-0.1021,-0.1031,-0.1046,-0.1039,-0.1208,-0.1108,-0.1083,-0.1088,-0.1091,-0.1051,-0.1049,-0.1048,-0.1046,0,-0.0502,-0.0534,-0.0544,-0.0561,-0.058,-0.0584,-0.0616,-0.0612,-0.0707,-0.0791,-0.0743,-0.0749,-0.0734,-0.0794,-0.0787,-0.0801,-0.1069,-0.0978,-0.0995,-0.1154,-0.1068,-0.1051,-0.1061,-0.1025,-0.1028,-0.103,-0.1031,0,-0.0482,-0.0475,-0.0497,-0.0508,-0.0508,-0.0472,-0.0504,-0.0496,-0.0526,-0.0617,-0.0563,-0.0587,-0.068,-0.0656,-0.0613,-0.0638,-0.0708,-0.0783,-0.0812,-0.0837,-0.0807,-0.0665,-0.0464,0,0,0,0,0,-0.0457,-0.0438,-0.044,-0.0427,-0.0419,-0.0415,-0.0427,-0.0459,-0.0515,-0.0468,-0.0538,-0.0488,-0.0492,-0.0475,-0.0466,-0.0516,-0.0705,-0.0504,-0.0804,-0.0908,-0.0932,-0.0926,0,0,0,0,0,0,-0.0436,-0.0433,-0.0421,-0.0348,-0.0314,-0.0285,-0.0283,-0.0328,-0.0296,-0.0375,-0.0354,-0.0461,-0.0438,-0.0487,-0.0451,-0.0461,-0.0645,-0.054,-0.0539,-0.0894,-0.0916,-0.0936,-0.0938,0,0,0,0,0]},{"header":{"parameterUnit":"m.s-1","parameterCategory":2,"la1":30.2991,"la2":30.254,"lo1":-89.0895,"lo2":-89.0444,"dy":0.0017,"dx":0.0017,"nx":28,"ny":28,"refTime":"2023-06-28T21:00:00:Z","depth":"4","parameterNumber":3,"parameterNumberName":"V-component_of_CURRENTS"},"data":[0,0,0,0,0,0,0,0,0,0,0,0,0,0,0,0,0,0,0,0,0,0,0,0,0,0,0,0,0,0,0,0,0,0,0,0,0,0,0,0,0,0,0,0,0,0,0,0,0,0,0,0,0,0,0,0,0,0,-0.06,-0.06,0,-0.0627,-0.0627,-0.0627,-0.0632,-0.0632,-0.0632,-0.0631,-0.0627,-0.0627,-0.0627,0,0,0,0,0,0,0,0,0,0,0,0,0,-0.0562,-0.0563,-0.06,-0.0601,-0.0601,-0.0627,-0.0627,-0.0627,-0.0632,-0.0632,-0.0631,-0.0631,-0.0627,-0.0627,-0.0627,0,0,0,0,0,0,0,0,0,0,0,0,0,-0.0581,-0.0563,-0.06,-0.0607,-0.0608,-0.0627,-0.0627,-0.0627,-0.0632,-0.0632,-0.0631,-0.0631,-0.0627,-0.0627,-0.0627,-0.0631,0,0,-0.0627,-0.0627,0,0,0,0,0,0,0,0,-0.058,-0.0583,-0.0606,-0.0607,-0.0608,-0.0627,-0.0612,-0.0627,-0.0632,-0.0622,-0.0631,-0.0631,-0.0625,-0.0625,-0.0629,-0.063,-0.063,-0.0627,-0.0627,-0.0627,-0.0627,0,0,0,0,0,0,0,-0.0579,-0.0582,-0.0609,-0.0606,-0.0608,-0.0612,-0.0615,-0.0615,-0.0622,-0.0622,-0.0623,-0.0628,-0.0625,-0.0629,-0.0629,-0.063,-0.0627,-0.0627,-0.0627,-0.0627,-0.0652,-0.0653,0,0,0,0,0,0,-0.0578,-0.058,-0.0609,-0.061,-0.0595,-0.0613,-0.0616,-0.062,-0.0623,-0.0624,-0.0628,-0.0628,-0.063,-0.0629,-0.0629,-0.0657,-0.0627,-0.0627,-0.0627,-0.0652,-0.0652,-0.0653,0,0,0,0,0,0,-0.0577,-0.058,-0.0607,-0.0597,-0.0601,-0.0614,-0.0619,-0.0621,-0.0637,-0.0628,-0.0628,-0.0645,-0.0629,-0.0629,-0.0635,-0.0656,-0.0627,-0.0627,-0.0651,-0.0652,-0.0653,-0.0698,0,0,0,0,0,0,-0.0576,-0.058,-0.0591,-0.0597,-0.0601,-0.0625,-0.0619,-0.0621,-0.064,-0.0641,-0.0642,-0.0641,-0.0629,-0.0635,-0.0635,-0.0656,-0.0627,-0.065,-0.0651,-0.0652,-0.0696,-0.0701,-0.0705,0,0,0,0,0,-0.0574,-0.0584,-0.0591,-0.0595,-0.0613,-0.0626,-0.0629,-0.0637,-0.0642,-0.0651,-0.0649,-0.0641,-0.0643,-0.0635,-0.0635,-0.0657,-0.0649,-0.0651,-0.0652,-0.0694,-0.07,-0.0705,0,0,0,0,0,0,-0.057,-0.0586,-0.0593,-0.0607,-0.0621,-0.0627,-0.0638,-0.0647,-0.0655,-0.0658,-0.0648,-0.0646,-0.0664,-0.0651,-0.0643,-0.0667,-0.0646,-0.0648,-0.0678,-0.0683,-0.0688,-0.0704,-0.0627,0,0,0,0,0,-0.0576,-0.0591,-0.0603,-0.0617,-0.0622,-0.0635,-0.0645,-0.0654,-0.0659,-0.0663,-0.0669,-0.0668,-0.0669,-0.0668,-0.0671,-0.0679,-0.0648,-0.0693,-0.0698,-0.0701,-0.0714,-0.0701,-0.0705,-0.0658,-0.0658,-0.0658,0,0,-0.0582,-0.059,-0.0601,-0.0618,-0.0627,-0.0643,-0.064,-0.066,-0.0681,-0.0661,-0.0692,-0.069,-0.0677,-0.069,-0.0696,-0.0681,-0.0688,-0.0703,-0.0707,-0.0718,-0.0703,-0.0707,-0.0711,-0.0659,-0.0659,-0.0659,0,0,-0.0589,-0.0604,-0.0616,-0.0629,-0.0649,-0.0659,-0.0669,-0.0689,-0.0705,-0.0731,-0.0723,-0.0735,-0.0739,-0.0735,-0.073,-0.0761,-0.0718,-0.076,-0.079,-0.0776,-0.078,-0.0783,-0.0702,-0.0697,-0.0755,-0.0755,-0.0755,0,-0.0593,-0.0612,-0.0622,-0.0633,-0.0654,-0.0668,-0.069,-0.0705,-0.0731,-0.0748,-0.0747,-0.0773,-0.0764,-0.0775,-0.0783,-0.0774,-0.0733,-0.077,-0.0782,-0.0785,-0.0788,-0.0704,-0.0698,-0.0758,-0.0757,-0.0757,-0.0757,0,-0.0606,-0.0627,-0.0634,-0.0658,-0.0681,-0.0702,-0.0726,-0.0754,-0.078,-0.0797,-0.0834,-0.0828,-0.0841,-0.084,-0.0819,-0.0835,-0.0786,-0.0795,-0.0769,-0.0795,-0.0704,-0.0697,-0.0761,-0.076,-0.0759,-0.0759,0,0,-0.0597,-0.0636,-0.0642,-0.0662,-0.0701,-0.0719,-0.0758,-0.0796,-0.0826,-0.0857,-0.0897,-0.0904,-0.091,-0.0905,-0.0889,-0.0878,-0.0841,-0.0844,-0.0842,-0.0762,-0.0756,-0.0673,-0.0657,-0.0852,-0.0852,-0.0853,-0.0667,0,-0.0605,-0.0636,-0.0661,-0.0705,-0.0724,-0.0761,-0.0796,-0.0835,-0.087,-0.0909,-0.092,-0.0951,-0.093,-0.0942,-0.0928,-0.0894,-0.0835,-0.0887,-0.0745,-0.0739,-0.0663,-0.0652,-0.0854,-0.0662,-0.0661,-0.066,-0.0659,0,-0.0611,-0.0631,-0.0677,-0.0733,-0.0747,-0.0782,-0.085,-0.0887,-0.0936,-0.0961,-0.0994,-0.1006,-0.1015,-0.099,-0.0917,-0.0952,-0.0847,-0.0797,-0.0789,-0.07,-0.0647,-0.0643,-0.0647,-0.0648,-0.0649,-0.0649,-0.065,0,-0.06,-0.0648,-0.0689,-0.0708,-0.0767,-0.0806,-0.085,-0.0908,-0.0949,-0.1005,-0.103,-0.1046,-0.1056,-0.0986,-0.0887,-0.0903,-0.0777,-0.0782,-0.0583,-0.0572,-0.0683,-0.0682,-0.0681,-0.0681,-0.0681,-0.0682,-0.0683,0,-0.0598,-0.0631,-0.0689,-0.0709,-0.0766,-0.0814,-0.0882,-0.0924,-0.0989,-0.102,-0.1058,-0.1055,-0.1061,-0.0995,-0.089,-0.0715,-0.0766,-0.0578,-0.0533,-0.0697,-0.0701,-0.0674,-0.0676,-0.0675,-0.0676,-0.0678,-0.0679,0,-0.0581,-0.062,-0.0668,-0.0735,-0.0764,-0.0811,-0.0905,-0.0948,-0.1001,-0.1044,-0.1066,-0.1077,-0.0983,-0.0923,-0.0795,-0.0701,-0.0558,-0.0453,-0.0588,-0.0555,-0.0347,-0.0354,-0.0233,-0.0228,-0.0225,-0.0222,-0.022,0,-0.0579,-0.0599,-0.068,-0.0719,-0.0757,-0.0828,-0.0879,-0.0954,-0.0976,-0.1018,-0.1012,-0.0976,-0.0946,-0.0699,-0.0637,-0.0428,-0.0383,-0.03,-0.0371,-0.034,-0.0308,-0.032,-0.033,-0.0214,-0.0213,-0.0212,-0.0211,0,-0.0565,-0.06,-0.0635,-0.0705,-0.077,-0.0833,-0.0889,-0.0899,-0.0957,-0.1008,-0.0939,-0.0866,-0.0736,-0.0624,-0.0467,-0.0315,-0.0389,-0.0262,-0.0269,-0.0335,-0.0315,-0.029,-0.0305,-0.0199,-0.0201,-0.0202,-0.0202,0,-0.0556,-0.0579,-0.0627,-0.0689,-0.0761,-0.0806,-0.0848,-0.0846,-0.0875,-0.09,-0.0853,-0.0773,-0.0755,-0.0551,-0.0399,-0.0275,-0.0237,-0.0206,-0.0215,-0.0228,-0.0307,-0.0286,-0.0112,0,0,0,0,0,-0.0538,-0.056,-0.0611,-0.0673,-0.0738,-0.0782,-0.0834,-0.0862,-0.0888,-0.0826,-0.0844,-0.0711,-0.0531,-0.046,-0.031,-0.0322,-0.0218,-0.014,-0.0188,-0.0131,-0.0145,-0.0235,0,0,0,0,0,0,-0.0531,-0.0566,-0.0591,-0.0636,-0.0676,-0.0746,-0.0781,-0.0813,-0.0751,-0.0769,-0.0662,-0.0655,-0.0468,-0.0614,-0.0302,-0.0269,-0.0271,-0.0072,-0.0068,-0.0123,-0.0136,-0.0147,-0.0244,0,0,0,0,0]}]]